Location: The Saddle
(36.8333°N, 80.3417°W)
Time: 08:31:09
(UTC-04:00)

Vanguard 2 Rocket - Pass Details

Date: 31 January 2023
Orbit: 555 x 3316 km, 32.9° (Epoch: 27 March)

Event Time Altitude Azimuth Distance (km) Brightness Sun altitude
Rises 17:01:08 0° 266° (W) 3,124 11.1 7.2°
Reaches altitude 10° 17:03:39 10° 250° (WSW) 2,429 11.8 6.8°
Maximum altitude 17:08:03 23° 199° (SSW) 2,112 9.6 6.0°
Drops below altitude 10° 17:14:20 10° 152° (SSE) 3,609 10.0 4.9°
Sets 17:19:09 0° 140° (SE) 5,140 10.6 4.0°
